Location: Newark
(36.1358°N, 115.1208°W)
Time: 00:29:47
(UTC+00:00)

S-56A Canister/Altair - Pass Details

Date: 19 February 2020
Orbit: 634 x 2498 km, 38.9° (Epoch: 28 March)

Event Time Altitude Azimuth Distance (km) Brightness Sun altitude
Rises 01:35:59 0° 290° (WNW) 5,841 13.1 -3.1°
Reaches altitude 10° 01:40:15 10° 287° (WNW) 4,618 12.7 -4.0°
Maximum altitude 01:51:55 54° 215° (SW) 1,882 9.8 -6.3°
Drops below altitude 10° 01:59:43 10° 140° (SE) 3,145 10.4 -7.8°
Sets 02:02:06 0° 136° (SE) 3,896 10.8 -8.3°
